Location: Holkham
(52.9500°N, 0.8167°E)
Time: 12:09:08
(UTC+00:00)

Cosmos 2221 - Visible Passes

Search period start: 17 December 2025 00:00
Search period end: 27 December 2025 00:00
Orbit: 568 x 591 km, 82.5° (Epoch: 16 December)

Date Brightness Start Highest point End Pass type
(mag) Time Alt. Az. Time Alt. Az. Time Alt. Az.
17 Dec 4.2 04:32:30 30° ENE 04:32:30 30° ENE 04:36:07 10° SE visible
17 Dec 3.0 06:08:53 31° WNW 06:09:31 33° W 06:13:14 10° SSW visible
17 Dec 3.5 18:36:21 10° S 18:38:54 37° S 18:38:54 37° S visible
18 Dec 3.9 04:38:23 34° E 04:38:23 34° E 04:41:28 10° SE visible
18 Dec 3.4 06:14:47 25° W 06:14:47 25° W 06:17:54 10° SW visible
18 Dec 4.1 17:06:37 10° ESE 17:08:26 15° E 17:08:26 15° E visible
18 Dec 3.0 18:41:26 10° SSW 18:44:50 54° SW 18:44:50 54° SW visible
19 Dec 4.0 04:44:20 31° SE 04:44:20 31° SE 04:46:44 10° SSE visible
19 Dec 4.1 06:20:44 17° WSW 06:20:44 17° WSW 06:22:25 10° SW visible
19 Dec 3.7 17:10:56 10° SE 17:13:57 20° E 17:14:19 19° ENE visible
19 Dec 3.2 18:46:37 10° SSW 18:50:40 51° WNW 18:50:42 51° WNW visible
20 Dec 4.3 04:50:20 22° SSE 04:50:20 22° SSE 04:51:54 10° SSE visible
20 Dec 4.7 06:26:44 10° WSW 06:26:44 10° WSW 06:26:45 10° WSW visible
20 Dec 3.4 17:15:28 10° SE 17:18:53 25° E 17:20:06 22° ENE visible
20 Dec 3.7 18:51:52 10° SW 18:55:46 39° WNW 18:56:29 36° NW visible
21 Dec 4.8 04:56:22 14° S 04:56:22 14° S 04:56:59 10° S visible
21 Dec 3.1 17:20:06 10° SSE 17:23:50 33° E 17:25:49 21° NE visible
21 Dec 4.2 18:57:13 10° SW 19:00:54 30° WNW 19:02:12 25° NW visible
22 Dec 2.7 17:24:52 10° SSE 17:28:48 43° E 17:31:28 19° NNE visible
22 Dec 4.6 19:02:40 10° WSW 19:06:03 24° WNW 19:07:50 18° NNW visible
23 Dec 2.4 17:29:43 10° S 17:33:46 58° E 17:37:02 15° NNE visible
23 Dec 5.0 19:08:15 10° WSW 19:11:13 19° WNW 19:13:24 13° NNW visible
24 Dec 2.3 17:34:39 10° S 17:38:47 77° E 17:42:33 12° NNE visible
24 Dec 5.3 19:13:58 10° W 19:16:25 15° WNW 19:18:51 10° NNW visible
25 Dec 2.5 17:39:40 10° SSW 17:43:48 80° W 17:47:59 10° N visible
25 Dec 5.4 19:20:02 10° W 19:21:38 12° WNW 19:23:13 10° NW visible
26 Dec 2.9 17:44:46 10° SSW 17:48:52 60° WNW 17:52:59 10° N visible
